DW3212 Weather Reports


time (UTC)temp
C
wind
direction
speed
KPH
gust
KPH
rain 1hr
cm
rain 24hr
cm
rain mn
cm
humidity
%
barometer
mb
20260508140101 6 0.0 0.0 0.00 0.00 0.00 50 1008.7
20260508134559 6 0.0 0.0 0.00 0.00 0.00 51 1008.8
20260508133056 6 0.0 0.0 0.00 0.00 0.00 51 1009.0
20260508131603 6 0.0 0.0 0.00 0.00 0.00 59 1009.0
20260508130111 6 0.0 0.0 0.00 0.00 0.00 62 1009.0
20260508124558 4 0.0 0.0 0.00 0.00 0.00 64 1008.8
20260508123105 3 0.0 0.0 0.00 0.00 0.00 71 1009.0
20260508121607 2 0.0 0.0 0.00 0.00 0.00 74 1009.2
20260508120058 1 0.0 0.0 0.00 0.00 0.00 75 1009.2
20260508114557 1 0.0 0.0 0.00 0.03 0.00 72 1009.2
20260508113102 1 0.0 0.0 0.00 0.03 0.00 70 1009.1
20260508111557 1 0.0 0.0 0.00 0.03 0.00 69 1008.9
20260508110057 1 0.0 0.0 0.00 0.03 0.00 69 1008.8
20260508104621 1 0.0 0.0 0.00 0.03 0.00 68 1008.6
20260508103056 1 0.0 0.0 0.00 0.03 0.00 67 1008.4
20260508101554 1 0.0 0.0 0.00 0.03 0.00 68 1008.2
20260508100057 1 0.0 0.0 0.00 0.03 0.00 69 1007.9
20260508094556 1 0.0 0.0 0.00 0.03 0.00 67 1007.9
20260508093101 1 0.0 0.0 0.00 0.03 0.00 67 1007.9
20260508091601 1 0.0 0.0 0.00 0.03 0.00 66 1007.6
20260508090108 1 0.0 0.0 0.00 0.03 0.00 64 1007.6
20260508084556 1 0.0 0.0 0.00 0.03 0.00 64 1007.6
20260508083113 2 0.0 0.0 0.00 0.03 0.00 63 1007.6
20260508081601 2 0.0 0.0 0.00 0.03 0.00 62 1007.4
20260508080111 2 0.0 0.0 0.00 0.03 0.00 62 1007.3
20260508074556 2 0.0 0.0 0.00 0.03 0.00 61 1007.4
20260508073055 2 0.0 0.0 0.00 0.03 0.00 61 1007.3
20260508071603 2 0.0 0.0 0.00 0.03 0.00 61 1007.2
20260508070141 2 0.0 0.0 0.00 0.03 0.00 61 1006.9
20260508064608 2 0.0 0.0 0.00 0.03 0.00 60 1007.0
20260508063056 2 0.0 0.0 0.00 0.03 0.00 60 1007.1
20260508061604 2 0.0 0.0 0.00 0.03 0.00 61 1007.1
20260508060055 2 0.0 0.0 0.00 0.03 0.00 59 1007.3
20260508054558 2 0.0 0.0 0.00 0.03 0.00 59 1007.4
20260508053105 3 0.0 0.0 0.00 0.03 0.00 59 1007.4
20260508051557 3 0.0 0.0 0.00 0.03 0.00 59 1007.5
20260508050100 3 0.0 0.0 0.00 0.03 0.00 59 1007.5
20260508044554 3 0.0 0.0 0.00 0.03 0.00 60 1007.6
20260508043102 3 0.0 0.0 0.00 0.03 0.00 58 1007.6
20260508041554 2 0.0 0.0 0.00 0.03 0.00 60 1007.9
20260508040057 3 0.0 0.0 0.00 0.03 0.00 58 1007.9
20260508034554 3 0.0 0.0 0.00 0.03 0.03 58 1008.0
20260508033055 3 0.0 0.0 0.00 0.03 0.03 58 1008.0
20260508031558 3 0.0 0.0 0.00 0.03 0.03 57 1008.0
20260508024600 3 0.0 0.0 0.00 0.03 0.03 55 1008.1
20260508023059 3 0.0 0.0 0.00 0.03 0.03 53 1008.1
20260508021603 4 0.0 0.0 0.00 0.03 0.03 50 1008.1
20260508020057 5 0.0 0.0 0.00 0.03 0.03 49 1008.0
20260508014601 5 0.0 0.0 0.00 0.05 0.03 48 1007.9
20260508013105 5 0.0 0.0 0.00 0.05 0.03 49 1007.6
20260508011558 5 0.0 0.0 0.00 0.05 0.03 51 1007.4
20260508010057 5 0.0 0.0 0.00 0.05 0.03 51 1007.2
20260508004601 5 0.0 0.0 0.00 0.10 0.03 51 1007.1
20260508003056 5 0.0 0.0 0.00 0.10 0.03 53 1006.9
20260508001557 6 0.0 0.0 0.00 0.10 0.03 51 1006.8
20260508000055 6 0.0 0.0 0.00 0.10 0.03 51 1006.8
20260507234555 6 0.0 0.0 0.00 0.15 0.03 52 1006.6
20260507233054 6 0.0 0.0 0.00 0.15 0.03 50 1006.5
20260507231557 6 0.0 0.0 0.00 0.15 0.03 51 1006.4
20260507230110 7 0.0 0.0 0.00 0.15 0.03 49 1006.4
20260507224556 7 0.0 0.0 0.00 0.23 0.03 45 1006.5
20260507223053 8 0.0 0.0 0.00 0.23 0.03 46 1006.4
20260507221600 8 0.0 0.0 0.00 0.23 0.03 49 1006.5
20260507220057 8 0.0 0.0 0.00 0.23 0.03 47 1006.4
20260507214556 8 0.0 0.0 0.00 0.30 0.03 48 1006.3
20260507213105 8 0.0 0.0 0.00 0.30 0.03 47 1006.3
20260507211557 8 0.0 0.0 0.00 0.30 0.03 48 1006.2
20260507210057 8 0.0 0.0 0.00 0.30 0.03 48 1006.2
20260507204600 8 0.0 0.0 0.00 0.46 0.03 49 1006.1
20260507203055 8 0.0 0.0 0.00 0.46 0.03 50 1006.2
20260507201604 8 0.0 0.0 0.00 0.46 0.03 50 1006.2
20260507200056 8 0.0 0.0 0.00 0.46 0.03 51 1006.4
20260507194603 9 0.0 0.0 0.00 0.58 0.03 51 1006.4
20260507193057 8 0.0 0.0 0.00 0.58 0.03 51 1006.5
20260507191615 8 0.0 0.0 0.00 0.58 0.03 50 1006.6
20260507190057 8 0.0 0.0 0.00 0.58 0.03 48 1006.8
20260507184606 10 0.0 0.0 0.00 0.84 0.03 48 1007.0
20260507183104 9 0.0 0.0 0.00 0.84 0.03 46 1006.9
20260507181556 9 0.0 0.0 0.00 0.84 0.03 48 1007.2
20260507180100 9 0.0 0.0 0.00 0.84 0.03 47 1007.3
20260507174555 9 0.0 0.0 0.00 1.24 0.03 49 1007.3
20260507173058 10 0.0 0.0 0.00 1.24 0.03 44 1007.2
20260507171557 10 0.0 0.0 0.00 1.24 0.03 43 1007.2
20260507170059 10 0.0 0.0 0.00 1.24 0.03 47 1007.2
20260507164624 9 0.0 0.0 0.00 1.55 0.03 48 1007.4
20260507163054 9 0.0 0.0 0.00 1.55 0.03 48 1007.7
20260507161601 8 0.0 0.0 0.00 1.55 0.03 50 1007.7
20260507160056 8 0.0 0.0 0.00 1.55 0.03 52 1007.9
20260507154553 8 0.0 0.0 0.00 1.65 0.03 54 1007.9
20260507153054 8 0.0 0.0 0.00 1.65 0.03 55 1008.1
20260507151554 8 0.0 0.0 0.00 1.65 0.03 60 1008.1
20260507150057 7 0.0 0.0 0.00 1.65 0.03 59 1008.1
20260507144600 7 0.0 0.0 0.00 1.68 0.03 53 1008.1
20260507143109 7 0.0 0.0 0.00 1.68 0.03 62 1008.1
20260507141613 7 0.0 0.0 0.00 1.68 0.03 60 1008.2